"Pseudo-MPEC" for G14654

Created 2019 Sep 25 12:07:09 UT using Find_Orb

Click here for an explanation of pseudo-MPECs

 
 Astrometry: 
     G14654  'C2019 09 117R]R-mWJ1yI9Wo/:g1w;i%D0+9N@?r]^$D+\npTH?nYhWsUBJq2O309
     G14654  'C2019 09 11ovZ.JT/jF(+E3Am)u;Cuk!nFCAstrometrysq/@,7OVk8r^(#]oD309
     G14654  'C2019 09 11Qxsl!=Aljl;cKe^1ggH%B@Jw!@uRrnyMe@s]0fyM^$mv5IdVqixk309
     G14654  'C2019 09 11aIhcCco;2HCwi[S\4[@8N='wredacted;'7IJ6:f9))\FRQX!N0D309
     G14654  'C2019 09 11kEQMY2HclickK`e,8FCaJYhere!jr^s._L:='h'K3La+5c0O(gN`309
     G14654  'C2019 09 11(R?^wlvpT[vnS#7ZNJa+eFtNWIVsk^YMkS1hEb8SC5Hv891A=rL)309
     G14654  'C2019 09 11rFWOIhInL\Bq5-_4oRhmgjCY]T)y;(*)Qx/h@[W(tlwL4j9Xhs;v309
     G14654  'C2019 09 11M;#.EV4:8rwDq`2kAis5qhIfor;\[]/vZ\87D7m3+_+()h;nd_gt309
     G14654  'C2019 09 118Hx.*Yk90KPtm/-xImZRon=fS_F'Qo%9S9_explanationGIdQK'309
     G14654  'C2019 09 11%rjgp9Z*lO,`Gsm,sN7BTQvG6wJNO'-Grt=eTGW^-q+ZdkT9\vG3309

Station data:
(309) Cerro Paranal  (S24.627212 W70.404310)  Chile.

Orbital elements:  G14654
   Perihelion 2019 Sep 18.965234 +/- 42.8 TT = 23:09:56 (JD 2458745.465234)
Epoch 2019 Sep 11.0 TT = JDT 2458737.5   Earth MOID: 0.2713   Ma: 0.0886
M 358.21218400 +/- 21               (J2000 ecliptic)          AutoNEOCP
n   0.22445241 +/- 0.25             Peri.    8.75270 +/- 60
a   2.68155385 +/- 1.99             Node   347.73561 +/- 42
e   0.5246501 +/- 0.257             Incl.   17.96401 +/- 7
P   4.39                   H 22.7   G  0.15   U 11.8  SR
q 1.27467611 +/- 0.264    Q 4.08843159 +/- 87.3
From 10 observations 2019 Sept. 11 (15.7 min); mean residual 0".13
Residuals in arcseconds: 
190911 309  .10+  .01+    190911 309  .06-  .11+    190911 309  .03+  .05-    
190911 309  .07+  .02+    190911 309  .05-  .14+    190911 309  .07+  .16-    
190911 309  .16-  .04+    190911 309  .16+  .03+    
190911 309  .01+  .36-    190911 309  .16-  .21+    

Ephemerides (geocentric):
Date (UTC) HH   RA              Dec         delta   r     elong  mag " sig PA
---- -- -- --  -------------   -----------  ------ ------ -----  --- ---- ---
2019 09 25 12  23 25 16.690   +17 49 55.43  .28712 1.2767 160.1 21.4  68d   0
2019 09 25 13  23 25 13.706   +17 52 24.62  .28723 1.2767 160.0 21.4  68d   0
2019 09 25 14  23 25 10.724   +17 54 53.65  .28733 1.2768 160.0 21.4  68d   0
2019 09 25 15  23 25 07.745   +17 57 22.51  .28744 1.2768 160.0 21.4  68d   0
2019 09 25 16  23 25 04.770   +17 59 51.21  .28754 1.2768 159.9 21.4  68d   0
2019 09 25 17  23 25 01.798   +18 02 19.74  .28765 1.2768 159.9 21.4  68d   0
2019 09 25 18  23 24 58.828   +18 04 48.10  .28775 1.2769 159.8 21.4  68d   0
2019 09 25 19  23 24 55.862   +18 07 16.29  .28786 1.2769 159.8 21.4  68d   0
2019 09 25 20  23 24 52.900   +18 09 44.32  .28796 1.2769 159.7 21.4  68d   0
2019 09 25 21  23 24 49.940   +18 12 12.17  .28807 1.2770 159.7 21.4  68d   0
2019 09 25 22  23 24 46.984   +18 14 39.86  .28818 1.2770 159.6 21.4  68d   0
2019 09 25 23  23 24 44.030   +18 17 07.38  .28828 1.2770 159.6 21.4  68d   0
2019 09 26 00  23 24 41.080   +18 19 34.73  .28839 1.2770 159.5 21.4  68d 179
2019 09 26 01  23 24 38.134   +18 22 01.92  .28850 1.2771 159.5 21.4  68d 179
2019 09 26 02  23 24 35.190   +18 24 28.93  .28860 1.2771 159.4 21.4  68d 179
2019 09 26 03  23 24 32.250   +18 26 55.77  .28871 1.2771 159.4 21.4  68d 179
2019 09 26 04  23 24 29.313   +18 29 22.45  .28882 1.2771 159.4 21.4  68d 179
2019 09 26 05  23 24 26.380   +18 31 48.95  .28893 1.2772 159.3 21.4  68d 179
2019 09 26 06  23 24 23.450   +18 34 15.29  .28904 1.2772 159.3 21.4  68d 179
2019 09 26 07  23 24 20.523   +18 36 41.45  .28915 1.2772 159.2 21.4  68d 179
2019 09 26 08  23 24 17.599   +18 39 07.44  .28926 1.2773 159.2 21.4  68d 179
2019 09 26 09  23 24 14.679   +18 41 33.26  .28937 1.2773 159.1 21.4  68d 179
2019 09 26 10  23 24 11.763   +18 43 58.91  .28948 1.2773 159.1 21.4  68d 179
2019 09 26 11  23 24 08.850   +18 46 24.39  .28959 1.2774 159.0 21.4  68d 179
2019 09 26 12  23 24 05.940   +18 48 49.70  .28970 1.2774 159.0 21.4  68d 179
2019 09 26 13  23 24 03.033   +18 51 14.84  .28981 1.2774 158.9 21.4  68d 179
2019 09 26 14  23 24 00.130   +18 53 39.80  .28993 1.2774 158.9 21.4  68d 179
2019 09 26 15  23 23 57.231   +18 56 04.60  .29004 1.2775 158.8 21.4  68d 179
2019 09 26 16  23 23 54.335   +18 58 29.22  .29015 1.2775 158.8 21.4  68d 179
2019 09 26 17  23 23 51.443   +19 00 53.67  .29026 1.2775 158.8 21.4  68d 179
2019 09 26 18  23 23 48.554   +19 03 17.94  .29038 1.2776 158.7 21.4  68d 179
2019 09 26 19  23 23 45.669   +19 05 42.04  .29049 1.2776 158.7 21.4  68d 179
2019 09 26 20  23 23 42.787   +19 08 05.97  .29060 1.2776 158.6 21.4  68d 179
2019 09 26 21  23 23 39.909   +19 10 29.73  .29072 1.2777 158.6 21.4  68d 179
2019 09 26 22  23 23 37.034   +19 12 53.31  .29083 1.2777 158.5 21.4  68d 179
2019 09 26 23  23 23 34.163   +19 15 16.72  .29095 1.2777 158.5 21.4  68d 179
2019 09 27 00  23 23 31.296   +19 17 39.96  .29106 1.2778 158.4 21.4  68d 179
2019 09 27 01  23 23 28.432   +19 20 03.02  .29118 1.2778 158.4 21.4  68d 179
2019 09 27 02  23 23 25.572   +19 22 25.91  .29129 1.2778 158.3 21.4  68d 179
2019 09 27 03  23 23 22.716   +19 24 48.62  .29141 1.2778 158.3 21.4  68d 179
2019 09 27 04  23 23 19.863   +19 27 11.16  .29153 1.2779 158.2 21.4  68d 179
2019 09 27 05  23 23 17.014   +19 29 33.53  .29164 1.2779 158.2 21.4  68d 179
2019 09 27 06  23 23 14.169   +19 31 55.72  .29176 1.2779 158.2 21.4  68d 179
2019 09 27 07  23 23 11.327   +19 34 17.73  .29188 1.2780 158.1 21.5  68d 178
2019 09 27 08  23 23 08.489   +19 36 39.57  .29200 1.2780 158.1 21.5  68d 178
2019 09 27 09  23 23 05.655   +19 39 01.23  .29212 1.2780 158.0 21.5  68d 178
2019 09 27 10  23 23 02.825   +19 41 22.72  .29223 1.2781 158.0 21.5  68d 178
2019 09 27 11  23 22 59.999   +19 43 44.04  .29235 1.2781 157.9 21.5  68d 178